Alvadore, OR

12:40 AM PST on January 23, 2017 (GMT -0800)
Mahlon Sweet

Weather History for KEUG - November, 2013

Change the Weather History Date:

Thursday, November 7, 2013

  Actual Average Record
Temperature  
Mean Temperature 52 °F 47 °F  
Max Temperature 57 °F 55 °F 69 °F (1978)
Min Temperature 47 °F 39 °F 24 °F (1935)
Degree Days  
Heating Degree Days 13 18  
Month to date heating degree days 100 122  
Since 1 July heating degree days 661 692  
Cooling Degree Days 0 0  
Month to date cooling degree days 0 0  
Year to date cooling degree days 411 239  
Moisture  
Dew Point 48 °F    
Average Humidity 86    
Maximum Humidity 100    
Minimum Humidity 72    
Precipitation  
Precipitation 0.29 in 0.23 in 2.56 in (2006)
Month to date precipitation 0.76 1.43  
Year to date precipitation 18.34 31.98  
Snow  
Snow 0.00 in - - ()
Month to date snowfall 0.0  
Since 1 July snowfall 0.0  
Since 1 September snowfall 0.0  
Snow Depth 0.00 in    
Sea Level Pressure  
Sea Level Pressure 30.08 in    
Wind  
Wind Speed 8 mph (SSW)    
Max Wind Speed 23 mph    
Max Gust Speed 30 mph    
Visibility 8 miles    
Events Rain    
T = Trace of Precipitation, MM = Missing Value Source: NWS Daily Summary

Daily Weather History Graph

Daily Weather History Graph

Search for Another Location

Airport or City:

Trip Planner

Search our weather history database for the weather conditions in past years. The results will help you decide how hot, cold, wet, or windy it might be!

Date:

Astronomy

Nov. 07, 2013 Rise Set
Actual Time 6:58 AM PST 4:54 PM PST
Civil Twilight 6:27 AM PST 5:25 PM PST
Nautical Twilight 5:52 AM PST 5:59 PM PST
Astronomical Twilight 5:19 AM PST 6:33 PM PST
Moon 11:13 AM PST (11/7) 9:11 PM PST (11/7)
Length of Visible Light 10h 57m
Length of Day
9h 56m
Waxing Crescent, 24% of the Moon is Illuminated
Nov 7
Waxing Crescent
Nov 9
First Quarter
Nov 17
Full
Nov 25
Last Quarter
Dec 2
New

Hourly Weather History & Observations

Time (PST) Temp. Windchill Dew Point Humidity Pressure Visibility Wind Dir Wind Speed Gust Speed Precip Events Conditions
12:01 AM 53.6 °F - 53.6 °F 100% 30.12 in 3.0 mi South 3.5 mph - N/A   Overcast
12:54 AM 54.0 °F - 54.0 °F 100% 30.10 in 7.0 mi SSE 5.8 mph - N/A   Overcast
1:08 AM 53.6 °F - 53.6 °F 100% 30.09 in 9.0 mi SSE 5.8 mph - N/A   Scattered Clouds
1:32 AM 53.6 °F - 53.6 °F 100% 30.08 in 10.0 mi South 3.5 mph - N/A   Mostly Cloudy
1:54 AM 54.0 °F - 53.1 °F 97% 30.08 in 10.0 mi Calm Calm - N/A   Overcast
2:54 AM 55.9 °F - 54.0 °F 93% 30.05 in 10.0 mi SSE 8.1 mph - N/A   Overcast
3:54 AM 55.0 °F - 53.1 °F 93% 30.04 in 10.0 mi SSE 5.8 mph - N/A   Mostly Cloudy
4:54 AM 55.0 °F - 53.1 °F 93% 30.03 in 10.0 mi South 5.8 mph - N/A   Overcast
5:54 AM 55.9 °F - 52.0 °F 87% 30.02 in 10.0 mi SSW 6.9 mph - N/A   Mostly Cloudy
6:11 AM 55.4 °F - 51.8 °F 88% 30.01 in 10.0 mi SSW 11.5 mph - N/A   Mostly Cloudy
6:54 AM 55.0 °F - 52.0 °F 89% 30.00 in 10.0 mi South 10.4 mph - 0.00 in   Overcast
7:54 AM 55.9 °F - 52.0 °F 87% 29.99 in 10.0 mi South 13.8 mph - N/A   Overcast
8:54 AM 55.9 °F - 53.1 °F 90% 29.98 in 10.0 mi SSW 10.4 mph - 0.01 in   Overcast
9:12 AM 51.8 °F - 46.4 °F 82% 30.03 in 2.5 mi WNW 17.3 mph 29.9 mph 0.02 in Rain Heavy Rain
9:20 AM 50.0 °F - 46.4 °F 87% 30.04 in 1.5 mi West 17.3 mph 25.3 mph 0.12 in Rain Rain
9:28 AM 50.0 °F - 46.4 °F 87% 30.03 in 1.5 mi West 10.4 mph - 0.15 in Rain Rain
9:36 AM 50.0 °F - 46.4 °F 87% 30.03 in 2.5 mi WSW 9.2 mph - 0.16 in Rain Light Rain
9:46 AM 50.0 °F - 46.4 °F 87% 30.04 in 3.0 mi West 8.1 mph - 0.18 in Rain Light Rain
9:54 AM 50.0 °F - 46.9 °F 89% 30.04 in 3.0 mi West 8.1 mph - 0.19 in Rain Rain
10:54 AM 50.0 °F - 48.0 °F 93% 30.04 in 7.0 mi SW 9.2 mph - 0.07 in Rain Light Rain
11:23 AM 51.8 °F - 48.2 °F 88% 30.06 in 10.0 mi South 5.8 mph - 0.02 in Rain Light Rain
11:54 AM 51.1 °F - 48.0 °F 89% 30.07 in 10.0 mi SW 9.2 mph - 0.02 in   Mostly Cloudy
12:20 PM 51.8 °F - 48.2 °F 88% 30.07 in 10.0 mi SW 6.9 mph - N/A   Mostly Cloudy
12:54 PM 53.1 °F - 48.0 °F 83% 30.08 in 10.0 mi SW 9.2 mph - N/A   Mostly Cloudy
1:54 PM 55.0 °F - 46.9 °F 74% 30.09 in 10.0 mi South 10.4 mph - N/A   Mostly Cloudy
2:54 PM 53.1 °F - 46.9 °F 80% 30.11 in 10.0 mi SW 11.5 mph - N/A   Mostly Cloudy
3:54 PM 52.0 °F - 46.9 °F 83% 30.12 in 10.0 mi SW 10.4 mph - 0.00 in   Mostly Cloudy
4:54 PM 48.9 °F - 45.0 °F 86% 30.13 in 10.0 mi SSW 8.1 mph - N/A   Mostly Cloudy
5:54 PM 48.0 °F - 44.1 °F 86% 30.15 in 10.0 mi SSW 9.2 mph - N/A   Scattered Clouds
6:54 PM 48.9 °F - 45.0 °F 86% 30.17 in 10.0 mi SW 8.1 mph - 0.00 in   Overcast
7:54 PM 46.0 °F 41.4 °F 43.0 °F 89% 30.17 in 10.0 mi SSW 9.2 mph - N/A   Scattered Clouds
8:54 PM 43.0 °F 39.5 °F 41.0 °F 93% 30.18 in 10.0 mi SSE 5.8 mph - N/A   Partly Cloudy
9:54 PM 42.1 °F 38.4 °F 39.9 °F 92% 30.18 in 10.0 mi SSW 5.8 mph - N/A   Partly Cloudy
10:54 PM 42.1 °F 37.7 °F 41.0 °F 96% 30.19 in 10.0 mi SSW 6.9 mph - N/A   Partly Cloudy
11:54 PM 41.0 °F - 39.9 °F 96% 30.19 in 9.0 mi Calm Calm - N/A   Scattered Clouds